Weather History for Farnborough, United Kingdom

Change the Weather History Date:

Friday, October 5, 2012

  Actual Average (EGLL) Record (EGLL)
Temperature  
Mean Temperature 53 °F -  
Max Temperature 58 °F 61 °F 68 °F (2001)
Min Temperature 48 °F 48 °F 39 °F (1999)
Degree Days  
Heating Degree Days 12    
Growing Degree Days 3 (Base 50)    
Moisture  
Dew Point 50 °F    
Average Humidity 87    
Maximum Humidity 100    
Minimum Humidity 69    
Precipitation  
Precipitation 0.20 in - - ()
Sea Level Pressure  
Sea Level Pressure 29.78 in    
Wind  
Wind Speed 9 mph ()    
Max Wind Speed 24 mph    
Max Gust Speed -    
Visibility 4.9 miles    
Events Rain    
Averages and records for this station are not official NWS values.
T = Trace of Precipitation, MM = Missing Value Source: Averaged Metar Reports

Daily Weather History Graph

Daily Weather History Graph

Search for Another Location

Airport:

Trip Planner

Search our weather history database for the weather conditions in past years. The results will help you decide how hot, cold, wet, or windy it might be!

Date:

Astronomy

Oct. 05, 2012 Rise Set
Actual Time 7:10 AM BST 6:31 PM BST
Civil Twilight 6:37 AM BST 7:04 PM BST
Nautical Twilight 5:58 AM BST 7:42 PM BST
Astronomical Twilight 5:19 AM BST 8:21 PM BST
Moon 9:09 PM BST (10/5) 12:38 PM BST (10/5)
Length of Visible Light 12h 26m
Length of Day
11h 20m
Waning Gibbous, 76% of the Moon is Illuminated
Oct 5
Waning Gibbous
Oct 8
Last Quarter
Oct 15
New
Oct 22
First Quarter
Oct 29
Full

Hourly Weather History & Observations

Time (BST) Temp. Dew Point Humidity Pressure Visibility Wind Dir Wind Speed Gust Speed Precip Events Conditions
12:50 AM 51 °F 49 °F 92% 29.73 in 4 mi SSE 8.1 mph - -   Mostly Cloudy
3:50 AM 59 °F 58 °F 97% 29.54 in 3 mi SW 24.2 mph - -   Mostly Cloudy
6:50 AM 52 °F 50 °F 89% 29.65 in 31 mi NW 9.2 mph - -   Partly Cloudy
6:50 AM 51.8 °F 48.2 °F 88% 29.65 in 6.2 mi WNW 10.4 mph - N/A   Mostly Cloudy
7:20 AM 51.8 °F 48.2 °F 88% 29.65 in 6.2 mi West 4.6 mph - N/A   Scattered Clouds
7:50 AM 51.8 °F 50.0 °F 94% 29.65 in 6.2 mi WSW 6.9 mph - N/A   Partly Cloudy
8:20 AM 51.8 °F 50.0 °F 94% 29.68 in 6.2 mi WSW 6.9 mph - N/A   Partly Cloudy
8:50 AM 53.6 °F 51.8 °F 94% 29.71 in 6.2 mi SW 9.2 mph - N/A   Partly Cloudy
9:20 AM 53.6 °F 50.0 °F 88% 29.74 in 6.2 mi WSW 10.4 mph - N/A   Partly Cloudy
9:50 AM 55 °F 50 °F 78% 29.75 in 34 mi West 10.4 mph - -   Overcast
9:50 AM 55.4 °F 50.0 °F 82% 29.74 in 6.2 mi WSW 11.5 mph - N/A   Partly Cloudy
10:20 AM 55.4 °F 50.0 °F 82% 29.74 in 6.2 mi West 12.7 mph - N/A   Partly Cloudy
10:50 AM 57.2 °F 50.0 °F 77% 29.77 in 6.2 mi West 12.7 mph - N/A   Partly Cloudy
11:20 AM 57.2 °F 50.0 °F 77% 29.77 in 6.2 mi WSW 13.8 mph - N/A   Scattered Clouds
11:50 AM 55.4 °F 48.2 °F 77% 29.77 in 6.2 mi West 13.8 mph - N/A   Mostly Cloudy
12:20 PM 55.4 °F 48.2 °F 77% 29.80 in 6.2 mi West 11.5 mph - N/A   Mostly Cloudy
12:50 PM 56 °F 49 °F 69% 29.81 in 28 mi West 11.5 mph - -   Partly Cloudy
12:50 PM 57.2 °F 48.2 °F 72% 29.80 in 6.2 mi West 12.7 mph - N/A   Mostly Cloudy
1:20 PM 57.2 °F 50.0 °F 77% 29.80 in 6.2 mi WSW 12.7 mph - N/A   Mostly Cloudy
1:50 PM 57.2 °F 50.0 °F 77% 29.80 in 6.2 mi WNW 8.1 mph - N/A   Mostly Cloudy
2:20 PM 57.2 °F 50.0 °F 77% 29.80 in 6.2 mi WNW 6.9 mph - N/A Rain Light Rain
2:50 PM 55.4 °F 50.0 °F 82% 29.80 in 6.2 mi WNW 5.8 mph - N/A Rain Light Rain
3:20 PM 55.4 °F 50.0 °F 82% 29.83 in 6.2 mi WSW 10.4 mph - N/A   Mostly Cloudy
3:50 PM 55 °F 50 °F 78% 29.83 in 25 mi WSW 8.1 mph - -   Mostly Cloudy
3:50 PM 55.4 °F 50.0 °F 82% 29.83 in 6.2 mi SW 9.2 mph - N/A Rain Light Rain
4:20 PM 53.6 °F 51.8 °F 94% 29.83 in 3.1 mi WSW 8.1 mph - N/A Rain Rain
4:50 PM 53.6 °F 50.0 °F 88% 29.83 in 3.1 mi WSW 5.8 mph - N/A Rain Rain
5:20 PM 51.8 °F 50.0 °F 94% 29.83 in 6.2 mi West 8.1 mph - N/A Rain Light Rain
5:50 PM 51.8 °F 50.0 °F 94% 29.83 in 6.2 mi West 4.6 mph - N/A Rain Light Rain
6:20 PM 50.0 °F 48.2 °F 94% 29.83 in 3.1 mi WSW 4.6 mph - N/A Rain Light Rain
6:50 PM 51 °F 49 °F 92% 29.85 in 3 mi West 3.5 mph - -   Scattered Clouds
6:50 PM 50.0 °F 48.2 °F 94% 29.86 in 1.9 mi WSW 3.5 mph - N/A Rain Heavy Rain
7:20 PM 50.0 °F 48.2 °F 94% 29.83 in 2.5 mi SSW 2.3 mph - N/A Rain Heavy Rain
7:50 PM 50.0 °F 48.2 °F 94% 29.83 in 3.7 mi Variable 3.5 mph - N/A Rain Heavy Rain
8:20 PM 50.0 °F 48.2 °F 94% 29.83 in 1.9 mi SSW 3.5 mph - N/A Rain Rain
8:50 PM 50.0 °F 48.2 °F 94% 29.83 in 2.2 mi Calm Calm - N/A Rain Rain
9:20 PM 48.2 °F 48.2 °F 100% 29.83 in 3.4 mi SW 1.2 mph - N/A Rain Rain
9:50 PM 50 °F 49 °F 94% 29.83 in 1 mi North 1.2 mph - -   Mostly Cloudy